Weather History for KMFE - September, 2012

Change the Weather History Date:

Thursday, September 20, 2012

  Actual Average Record
Temperature  
Mean Temperature 83 °F 82 °F  
Max Temperature 95 °F 92 °F 102 °F (1947)
Min Temperature 71 °F 73 °F 57 °F (1981)
Degree Days  
Heating Degree Days 0 0  
Month to date heating degree days 0 0  
Since 1 July heating degree days 0 0  
Cooling Degree Days 18 17  
Month to date cooling degree days 430 386  
Year to date cooling degree days 4222 3637  
Growing Degree Days 32 (Base 50)    
Moisture  
Dew Point 63 °F    
Average Humidity 58    
Maximum Humidity 90    
Minimum Humidity 26    
Precipitation  
Precipitation 0.00 in 0.14 in 3.48 in (1963)
Month to date precipitation 1.55 3.21  
Year to date precipitation 14.89 16.78  
Sea Level Pressure  
Sea Level Pressure 30.01 in    
Wind  
Wind Speed 5 mph (East)    
Max Wind Speed 20 mph    
Max Gust Speed 24 mph    
Visibility 10 miles    
Events      
T = Trace of Precipitation, MM = Missing Value Source: NWS Daily Summary

Daily Weather History Graph

Daily Weather History Graph

Search for Another Location

Airport or City:

Trip Planner

Search our weather history database for the weather conditions in past years. The results will help you decide how hot, cold, wet, or windy it might be!

Date:

Astronomy

Sep. 20, 2012 Rise Set
Actual Time 7:20 AM CDT 7:31 PM CDT
Civil Twilight 6:57 AM CDT 7:54 PM CDT
Nautical Twilight 6:30 AM CDT 8:20 PM CDT
Astronomical Twilight 6:03 AM CDT 8:47 PM CDT
Moon 12:07 PM CDT (9/20) 11:08 PM CDT (9/20)
Length of Visible Light 12h 56m
Length of Day
12h 10m
Waxing Crescent, 27% of the Moon is Illuminated
Sep 20
Waxing Crescent
Sep 22
First Quarter
Sep 29
Full
Oct 8
Last Quarter
Oct 15
New

Hourly Weather History & Observations

Time (CDT) Temp. Heat Index Dew Point Humidity Pressure Visibility Wind Dir Wind Speed Gust Speed Precip Events Conditions
12:53 AM 73.9 °F - 68.0 °F 82% 30.04 in 10.0 mi ESE 4.6 mph - N/A   Clear
1:53 AM 73.9 °F - 68.0 °F 82% 30.04 in 10.0 mi Calm Calm - N/A   Clear
2:53 AM 75.0 °F - 68.0 °F 79% 30.03 in 10.0 mi East 3.5 mph - N/A   Clear
3:53 AM 73.0 °F - 68.0 °F 84% 30.03 in 10.0 mi Calm Calm - N/A   Clear
4:53 AM 71.6 °F - 68.0 °F 88% 30.03 in 10.0 mi Calm Calm - N/A   Scattered Clouds
5:53 AM 72.0 °F - 68.0 °F 87% 30.03 in 10.0 mi Calm Calm - N/A   Partly Cloudy
6:53 AM 71.1 °F - 68.0 °F 90% 30.04 in 10.0 mi Calm Calm - N/A   Clear
7:53 AM 71.6 °F - 68.0 °F 88% 30.05 in 10.0 mi Calm Calm - N/A   Clear
8:53 AM 77.0 °F - 69.1 °F 76% 30.05 in 10.0 mi NNW 3.5 mph - N/A   Clear
9:53 AM 81.0 °F 83.8 °F 68.0 °F 65% 30.06 in 10.0 mi ESE 3.5 mph - N/A   Clear
10:53 AM 84.0 °F 86.5 °F 66.9 °F 56% 30.06 in 10.0 mi Variable 5.8 mph - N/A   Partly Cloudy
11:53 AM 84.9 °F 86.1 °F 64.0 °F 49% 30.05 in 10.0 mi Calm Calm - N/A   Clear
12:53 PM 90.0 °F 90.0 °F 61.0 °F 38% 30.03 in 10.0 mi East 5.8 mph - N/A   Clear
1:53 PM 91.0 °F 90.5 °F 60.1 °F 35% 30.00 in 10.0 mi ENE 8.1 mph - N/A   Clear
2:53 PM 91.9 °F 90.0 °F 55.0 °F 29% 29.97 in 10.0 mi Variable 5.8 mph - N/A   Clear
3:53 PM 93.0 °F 90.8 °F 54.0 °F 27% 29.94 in 10.0 mi North 4.6 mph - N/A   Clear
4:53 PM 93.0 °F 91.1 °F 55.0 °F 28% 29.93 in 10.0 mi East 5.8 mph - N/A   Partly Cloudy
5:53 PM 91.9 °F 90.6 °F 57.0 °F 31% 29.92 in 10.0 mi East 17.3 mph - N/A   Scattered Clouds
6:53 PM 88.0 °F 86.1 °F 55.0 °F 32% 29.93 in 10.0 mi ENE 15.0 mph - N/A   Clear
7:53 PM 84.0 °F 83.5 °F 57.9 °F 41% 29.95 in 10.0 mi East 13.8 mph 23.0 mph N/A   Clear
8:53 PM 81.0 °F 81.9 °F 62.1 °F 52% 29.96 in 10.0 mi East 13.8 mph 21.9 mph N/A   Clear
9:53 PM 79.0 °F - 62.1 °F 56% 29.99 in 10.0 mi East 10.4 mph - N/A   Clear
10:53 PM 77.0 °F - 62.1 °F 60% 30.01 in 10.0 mi ESE 4.6 mph - N/A   Clear
11:53 PM 73.9 °F - 63.0 °F 68% 30.01 in 10.0 mi Calm Calm - N/A   Clear